Location: Cutler
(25.6150°N, 80.3110°W)
Time: 08:00:24
(UTC-04:00)

Vanguard 1 - Pass Details

Date: 26 January 2018
Orbit: 650 x 3833 km, 34.3° (Epoch: 21 May)

Event Time Altitude Azimuth Distance (km) Brightness Sun altitude
Rises 04:21:33 0° 292° (WNW) 4,909 - -37.2°
Reaches altitude 10° 04:24:11 10° 290° (WNW) 4,235 - -36.6°
Exits shadow 04:33:03 57° 261° (W) 2,860 11.9 -34.6°
Maximum altitude 04:36:33 68° 210° (SSW) 2,919 12.1 -33.8°
Drops below altitude 10° 04:57:56 10° 132° (SE) 6,824 15.0 -29.0°
Sets 05:03:39 0° 130° (SE) 7,958 15.6 -27.8°
